Weather History for Evanston, WY

Change the Weather History Date:

Wednesday, August 7, 2013

  Actual Average Record
Temperature  
Mean Temperature 68 °F 67 °F  
Max Temperature 84 °F 81 °F 90 °F (2001)
Min Temperature 52 °F 53 °F 32 °F (1996)
Degree Days  
Heating Degree Days 0 1  
Month to date heating degree days 0 7  
Since 1 June heating degree days 137 273  
Since 1 July heating degree days 4 43  
Cooling Degree Days 3 3  
Month to date cooling degree days 37 21  
Year to date cooling degree days 257 117  
Since 1 June cooling degree days 257 116  
Growing Degree Days 17 (Base 50)    
Moisture  
Dew Point 30 °F    
Average Humidity 27    
Maximum Humidity 44    
Minimum Humidity 10    
Precipitation  
Precipitation 0.00 in 0.03 in 0.00 in (2014)
Month to date precipitation 0.02 0.21  
Year to date precipitation 2.23 7.28  
Sea Level Pressure  
Sea Level Pressure 29.90 in    
Wind  
Wind Speed 5 mph (SSW)    
Max Wind Speed 13 mph    
Max Gust Speed 23 mph    
Visibility 10 miles    
Events      
T = Trace of Precipitation, MM = Missing Value Source: NWS Daily Summary

Daily Weather History Graph

Daily Weather History Graph

Search for Another Location

Airport:

Trip Planner

Search our weather history database for the weather conditions in past years. The results will help you decide how hot, cold, wet, or windy it might be!

Date:

Astronomy

Aug. 07, 2013 Rise Set
Actual Time 6:25 AM MDT 8:33 PM MDT
Civil Twilight 5:55 AM MDT 9:03 PM MDT
Nautical Twilight 5:17 AM MDT 9:40 PM MDT
Astronomical Twilight 4:36 AM MDT 10:21 PM MDT
Moon 7:18 AM MDT (8/7) 8:40 PM MDT (8/7)
Length of Visible Light 15h 08m
Length of Day
14h 07m
New Moon, 1% of the Moon is Illuminated
Aug 7
New Moon
Aug 14
First Quarter
Aug 20
Full
Aug 28
Last Quarter
Sep 5
New

Hourly Weather History & Observations

Time (MDT) Temp. Dew Point Humidity Pressure Visibility Wind Dir Wind Speed Gust Speed Precip Events Conditions
12:53 AM 66.0 °F 27.0 °F 23% 29.89 in 10.0 mi Calm Calm - N/A   Clear
1:53 AM 61.0 °F 30.9 °F 32% 29.91 in 10.0 mi SE 6.9 mph - N/A   Clear
2:53 AM 60.1 °F 30.9 °F 33% 29.90 in 10.0 mi SE 5.8 mph - N/A   Clear
3:53 AM 61.0 °F 30.9 °F 32% 29.89 in 10.0 mi SSE 4.6 mph - N/A   Clear
4:53 AM 55.9 °F 30.9 °F 39% 29.92 in 10.0 mi SSE 5.8 mph - N/A   Clear
5:53 AM 52.0 °F 30.9 °F 45% 29.92 in 10.0 mi SE 5.8 mph - N/A   Clear
6:53 AM 53.1 °F 30.9 °F 43% 29.94 in 10.0 mi South 5.8 mph - N/A   Clear
7:53 AM 57.0 °F 30.9 °F 37% 29.96 in 10.0 mi SW 4.6 mph - N/A   Clear
8:53 AM 63.0 °F 33.1 °F 33% 29.95 in 10.0 mi Calm Calm - N/A   Clear
9:53 AM 70.0 °F 32.0 °F 25% 29.92 in 10.0 mi Variable 3.5 mph - N/A   Clear
10:53 AM 75.9 °F 28.9 °F 18% 29.90 in 10.0 mi SSW 6.9 mph - N/A   Clear
11:53 AM 80.1 °F 28.9 °F 15% 29.88 in 10.0 mi SW 4.6 mph - N/A   Clear
12:53 PM 82.0 °F 25.0 °F 12% 29.86 in 10.0 mi Variable 4.6 mph - N/A   Partly Cloudy
1:53 PM 80.1 °F 19.9 °F 11% 29.86 in 10.0 mi WNW 8.1 mph 19.6 mph N/A   Scattered Clouds
2:53 PM 82.0 °F 19.0 °F 10% 29.85 in 10.0 mi NW 13.8 mph 21.9 mph N/A   Clear
3:53 PM 80.1 °F 19.9 °F 11% 29.84 in 10.0 mi NW 12.7 mph 17.3 mph N/A   Partly Cloudy
4:53 PM 79.0 °F 19.0 °F 11% 29.85 in 10.0 mi West 4.6 mph - N/A   Clear
5:53 PM 73.9 °F 28.9 °F 19% 29.90 in 10.0 mi South 17.3 mph 27.6 mph N/A   Clear
6:53 PM 72.0 °F 30.0 °F 21% 29.90 in 10.0 mi SW 23.0 mph 27.6 mph N/A   Clear
7:53 PM 66.9 °F 36.0 °F 32% 29.92 in 10.0 mi SW 18.4 mph - N/A   Clear
8:53 PM 63.0 °F 37.9 °F 40% 29.93 in 10.0 mi SSW 10.4 mph - N/A   Clear
9:53 PM 61.0 °F 37.9 °F 42% 29.92 in 10.0 mi SW 13.8 mph - N/A   Clear
10:53 PM 59.0 °F 37.9 °F 46% 29.90 in 10.0 mi WSW 13.8 mph - N/A   Clear
11:53 PM 57.0 °F 37.9 °F 49% 29.91 in 10.0 mi SE 5.8 mph - N/A   Clear